Location: *
(48.8667°N, 2.3331°E)
Time: 18:12:31
(UTC+00:00)

Cosmos 1892 - Pass Details

Date: 09 April 2020
Orbit: 503 x 526 km, 82.5° (Epoch: 01 June)

Event Time Altitude Azimuth Distance (km) Brightness Sun altitude
Rises 19:55:04 0° 359° (N) 2,675 6.8 -13.2°
Reaches altitude 10° 19:57:27 10° 11° (N) 1,781 5.7 -13.6°
Maximum altitude 20:00:52 28° 72° (ENE) 1,014 3.8 -14.0°
Enters shadow 20:02:01 24° 102° (ESE) 1,127 3.8 -14.2°
